Burlington, CO

4:06 PM MST on December 06, 2016 (GMT -0700)
Kit Carson County

Weather History for KITR - June, 2012

Change the Weather History Date:

Saturday, June 9, 2012

  Actual Average Record
Temperature  
Mean Temperature 80 °F 67 °F  
Max Temperature 99 °F 81 °F 99 °F (2012)
Min Temperature 61 °F 52 °F 39 °F (1955)
Cooling Degree Days 15    
Growing Degree Days 30 (Base 50)    
Moisture  
Dew Point 45 °F    
Average Humidity 45    
Maximum Humidity 93    
Minimum Humidity 7    
Precipitation  
Precipitation 0.00 in 0.09 in 1.70 in (1919)
Month to date precipitation 1.55 0.87  
Year to date precipitation 6.18 6.60  
Sea Level Pressure  
Sea Level Pressure 29.47 in    
Wind  
Wind Speed 21 mph (South)    
Max Wind Speed 29 mph    
Max Gust Speed 38 mph    
Visibility 10 miles    
Events      
T = Trace of Precipitation, MM = Missing Value Source: NWS Daily Summary

Daily Weather History Graph

Daily Weather History Graph

Search for Another Location

Airport or City:

Trip Planner

Search our weather history database for the weather conditions in past years. The results will help you decide how hot, cold, wet, or windy it might be!

Date:

Astronomy

Jun. 09, 2012 Rise Set
Actual Time 5:22 AM MDT 8:14 PM MDT
Civil Twilight 4:50 AM MDT 8:46 PM MDT
Nautical Twilight 4:09 AM MDT 9:27 PM MDT
Astronomical Twilight 3:23 AM MDT 10:13 PM MDT
Moon No Moon Rise 11:08 AM MDT (6/9)
Length of Visible Light 15h 56m
Length of Day
14h 52m
Waning Gibbous, 67% of the Moon is Illuminated
Jun 9
Waning Gibbous
Jun 11
Last Quarter
Jun 19
New
Jun 26
First Quarter
Jul 3
Full

Hourly Weather History & Observations

Time (MDT) Temp. Dew Point Humidity Pressure Visibility Wind Dir Wind Speed Gust Speed Precip Events Conditions
12:53 AM 66.0 °F 59.0 °F 78% 29.60 in 10.0 mi South 21.9 mph - N/A   Clear
1:53 AM 64.0 °F 60.1 °F 87% 29.57 in 10.0 mi SSE 25.3 mph 33.4 mph N/A   Clear
2:35 AM 64.4 °F 60.8 °F 88% 29.73 in 10.0 mi South 27.6 mph 38.0 mph N/A   Mostly Cloudy
2:53 AM 64.0 °F 60.1 °F 87% 29.54 in 10.0 mi South 28.8 mph 38.0 mph N/A   Overcast
3:53 AM 63.0 °F 59.0 °F 87% 29.52 in 10.0 mi South 27.6 mph 34.5 mph N/A   Overcast
4:44 AM 62.6 °F 59.0 °F 88% 29.70 in 9.0 mi South 21.9 mph 32.2 mph N/A   Overcast
4:53 AM 63.0 °F 59.0 °F 87% 29.52 in 9.0 mi South 23.0 mph 32.2 mph N/A   Mostly Cloudy
5:39 AM 62.6 °F 59.0 °F 88% 29.70 in 6.0 mi South 19.6 mph - N/A   Scattered Clouds
5:53 AM 61.0 °F 59.0 °F 93% 29.53 in 6.0 mi South 18.4 mph - N/A   Partly Cloudy
6:53 AM 64.0 °F 60.1 °F 87% 29.53 in 8.0 mi South 18.4 mph 26.5 mph N/A   Clear
7:53 AM 72.0 °F 59.0 °F 64% 29.53 in 10.0 mi SW 13.8 mph - N/A   Clear
8:53 AM 79.0 °F 51.1 °F 38% 29.51 in 10.0 mi SW 16.1 mph - N/A   Clear
9:53 AM 87.1 °F 45.0 °F 23% 29.48 in 10.0 mi WSW 17.3 mph - N/A   Clear
10:53 AM 93.0 °F 32.0 °F 12% 29.46 in 10.0 mi SW 11.5 mph - N/A   Clear
11:53 AM 93.9 °F 28.0 °F 10% 29.45 in 10.0 mi WSW 8.1 mph - N/A   Clear
12:53 PM 97.0 °F 30.0 °F 9% 29.42 in 10.0 mi South 15.0 mph 21.9 mph N/A   Clear
1:53 PM 98.1 °F 25.0 °F 7% 29.40 in 10.0 mi SSW 16.1 mph 25.3 mph N/A   Clear
2:53 PM 99.0 °F 23.0 °F 7% 29.37 in 10.0 mi South 12.7 mph - N/A   Clear
3:53 PM 98.1 °F 23.0 °F 7% 29.35 in 10.0 mi South 21.9 mph 32.2 mph N/A   Clear
4:53 PM 99.0 °F 28.0 °F 8% 29.34 in 10.0 mi South 17.3 mph 26.5 mph N/A   Clear
5:53 PM 95.0 °F 44.1 °F 17% 29.33 in 10.0 mi SE 23.0 mph 34.5 mph N/A   Clear
6:53 PM 93.9 °F 24.1 °F 8% 29.31 in 10.0 mi South 13.8 mph - N/A   Clear
7:53 PM 88.0 °F 30.9 °F 13% 29.31 in 10.0 mi South 26.5 mph 35.7 mph N/A   Clear
8:53 PM 82.0 °F 34.0 °F 18% 29.33 in 10.0 mi SSE 20.7 mph - N/A   Clear
9:53 PM 79.0 °F 37.0 °F 22% 29.35 in 10.0 mi SSE 24.2 mph 34.5 mph N/A   Clear
10:53 PM 77.0 °F 48.0 °F 36% 29.36 in 10.0 mi South 25.3 mph 34.5 mph N/A   Clear
11:53 PM 75.0 °F 55.9 °F 51% 29.35 in 10.0 mi South 28.8 mph 34.5 mph N/A   Clear